STARLINK-4126, 52867

Orbit data source: Space-Track

STARLINK-4126, 52867 is a payload satellite owned by SpaceX/Seattle (US) in LEO that was launched on Fri, 17 Jun 2022 UTC via an FALCON 9 launch vehicle from the Air Force Eastern Test Range (AFETR). Payload-class satellites include a variety of spacecraft equipped with specific instruments for various scientific and technological missions. These include communications satellites like Starlink; space stations such as the ISS; scientific satellites like the Hubble; Earth observation satellites from companies like Planet Labs, Umbra, and HawkEye 360; GPS; miniature CubeSats for education and research; and military/defense satellites.

Loading next visibility...
Identifier
52867, 2022-062AP
Orbit
LEO
Country
Flag of USUS
Related business
Manufacturer
SpaceX/Seattle
Mission
Operational Commercial Communications
Bus & Motor
STARLINK, Unknown motor
Mass
297 kg wet, ~275 kg dry
Launch date (UTC)
2022-06-17 (3 years ago)
Launch vehicle
FALCON 9
Launch site
Air Force Eastern Test Range (AFETR)
Object type
Payload
Rocket body
Debris
Shape & HBR
Box + 1 Pan, 10.1 m
Radar Cross Section
13.562 m², Large (>1 m²)

Expand to show TLE details & history
Last TLE update: 1 day ago

TLE from 1 day ago
0 STARLINK-4126
1 52867U 22062AP  25348.39703220  .00005271  00000-0  34902-3 0  9994
2 52867  53.2182  47.0139 0001395  95.5397 264.5754 15.08837808193050
Epoch: 2025-12-14T09:31Z
TLE epoch observation values (Epoch: 2025-12-14T09:31:43.582Z)
Latitude
-0.00003°
Longitude
-179.22825°
Altitude
540.739 km
Speed
7.593 km/s
True Right ascension
03h 08m 03s
True Declination
0° 00' 00"
Sunlit
Object was in full shadow at epoch
Visualization orbit readout
Latitude
Unknown
Longitude
Unknown
Altitude
Unknown
Speed
Unknown
Apparent Right ascension
Unknown
Apparent Declination
Unknown
Sunlit
N/A
Visualization observer readout
Local Sidereal Time
13:24:50
Azimuth
Unknown
Elevation
Unknown
Doppler factor
Unknown
Orbital elements
Apogee altitude
540.96 km
Perigee altitude
539.03 km
Semi-major axis
6,918.132 km
Eccentricity
0.00014
Inclination
53.2182°
RAAN
47.0139°
Arg. of periapsis
95.5397°
True anomaly
264.55949°
Mean anomaly
264.5754°
Eccentric anomaly
264.56744°
Mean motion
3.7719 °/min
Orbital period
95.44 mins
BSTAR
0.00034902
Loading maneuver chart data...
Computing Atmospheric mass density...
Loading historical data...
Loading historical data...
Loading historical data...
Loading historical data...
Loading historical data...
Loading historical data...
Loading historical data...

Documentation

Showing up to 5 results
|